    Observer details:
    033 Karl Schwarzschild Observatory, Tautenburg.  Observers S. Melnikov, C. 
       Hoegner, B. Stecklum.  Measurer B. Stecklum.  1.34-m f/3 Schmidt + CCD.
    246 Klet Observatory-KLENOT.  Observers M. Tichy, J. Ticha, M. Honkova.  
        Measurer M. Tichy.  1.06-m f/2.7 reflector + 2048x2048 CCD.
    381 Tokyo-Kiso.  Observers S. Shigeyuki, J. Beniyama, R. Ohsawa, T. Morokuma.  
        1.05-m f/3.1 Schmidt + CCD.
    A50 Andrushivka Astronomical Observatory.  Observer Y. Ivashchenko.  0.5-m 
       reflector + CCD.
    G34 Oberfrauendorf.  Observer T. Felber.  0.35-m f/6.3 Schmidt-Cassegrain + CCD.
    H06 iTelescope Observatory, Mayhill.  Observer H. Sato.  0.43-m f/6.8 
       astrograph + CCD + f/4.5 focal reducer.
    H21 Astronomical Research Observatory, Westfield.  Observer R. Holmes.  
        Measurers S. Foglia, L. Buzzi, T. Linder, R. Holmes.  0.76-m f/3.0 
       astrograph + CCD.
    I52 Steward Observatory, Mt. Lemmon Station.  Observer D. C. Fuls.  Measurers 
       E. J. Christensen, G. A. Farneth, D. C. Fuls, A. R. Gibbs, A. D. Grauer, H. 
       Groeller, R. A. Kowalski, S. M. Larson, G. J. Leonard, T. A. Pruyne, D. 
       Rankin, R. L. Seaman, F. C. Shelly, K. W. Wierzchos.  1.0-m reflector + CCD.
    K63 G. Pascoli Observatory, Castelvecchio Pascoli.  Observer R. Bacci.  0.4-m 
       f/3.2 Newtonian reflector + CCD.
    K80 Platanus Observatory, Lusowko.  Observer T. Kluwak.  0.28-m f/2.2 Schmidt + 
       CCD.
    L01 Visnjan Observatory, Tican.  Observer K. Korlevic.  1.0-m f/2.9 reflector + 
       CCD.
    L04 ROASTERR-1 Observatory, Cluj-Napoca.  Observer L. Hudin.  0.3-m f/5 
       reflector + CCD.
    L18 QOS Observatory, Zalistci.  Observer T. A. Bezluschenko.  Measurer A. M. 
       Kozhukhov.
    P93 Space Tracking and Communications Center, JAXA.  Observers S. Okumura, T. 
       Nimura.  0.5-m f/2.0 reflector + CCD.
    
    Orbital elements:
    2020 HT7                                                 Earth MOID = 0.0047 AU
    Epoch 2020 May 31.0 TT = JDT 2459000.5                  Veres
    M  16.98248              (2000.0)            P               Q
    n   0.67196757     Peri.   10.85662     -0.69166958     +0.72047773
    a   1.2909334      Node   215.41331     -0.66892155     -0.66521790
    e   0.2187910      Incl.    4.95495     -0.27228139     -0.19595148
    P   1.47           H   26.8           G   0.15           U   5
    Residuals in seconds of arc
    200427 381  0.2-  0.6+    200427 G34  1.2+  0.2+    200427 246  0.1+  0.2+
    200427 381  0.5+  0.1+    200427 G34  0.0   0.3+    200427 246  0.9+  0.4+
    200427 381  0.5-  0.3-    200427 L18  0.7-  2.0-    200427 246  0.6+  0.1-
    200427 381  0.5+  0.7+    200427 G34  0.1-  0.1+    200427 A50  0.5-  1.1-
    200427 381  1.3-  0.3-    200427 L18  0.5-  1.6-    200427 033  0.3-  0.2-
    200427 381  0.2+  0.6+    200427 G34  0.6+  0.3+    200427 033  0.3+  0.0
    200427 381  0.6+  0.2-    200427 G34  0.1+  0.0     200427 033  0.6-  0.5-
    200427 381  0.3-  0.4+    200427 L18  0.7-  0.9-    200428 K80  0.2-  0.0
    200427 381  0.7-  0.2-    200427 L01  0.7-  0.3-    200428 K80  0.0   0.0
    200427 381  0.1+  1.5+    200427 L01  0.4-  0.1+    200428 K80  0.2-  0.2-
    200427 381  0.5+  0.1+    200427 L01  0.4-  0.2-    200428 K80  0.0   0.1-
    200427 381  0.2+  0.6-    200427 L01  0.6-  0.0     200428 K80  0.2-  0.0
    200427 P93  0.1+  1.9-    200427 L01  0.5-  0.1+    200428 K80  0.0   0.0
    200427 P93  0.7-  1.2-    200427 L01  0.6-  0.1-    200428 K80  0.2-  0.3-
    200427 P93  0.6+  0.1+    200427 L01  0.6-  0.2-    200428 K80  0.2-  0.1-
    200427 L04  0.7-  0.2+    200427 246  0.6+  0.7+    200428 I52  0.7-  0.4-
    200427 L04  0.2+  0.8+    200427 246  0.8+  0.3+    200428 I52  0.0   0.2-
    200427 L04  0.0   0.0     200427 246  1.3+  0.8+    200428 I52  0.1-  0.1-
    200427 L04  0.2+  0.6+    200427 246  0.8+  0.7+    200428 I52  0.1-  0.0
    200427 K63  0.0   1.1+    200427 246  1.2+  0.4+    200428 H21  0.2+  0.4+
    200427 K63  0.5-  1.2+    200427 246  1.8+  0.7+    200428 H21  0.2+  0.1+
    200427 K63  0.4+  0.2+    200427 246  0.9+  0.1+    200428 H21  0.3+  0.2+
    200427 G34  0.3-  0.1-    200427 A50  0.4-  0.6-    200428 H21  0.0   0.4+
    200427 G34  0.1-  0.9-    200427 A50  0.7-  0.0     200428 H21  0.0   0.5+
    200427 G34  0.2+  0.3+    200427 A50  0.1-  0.6-    200428 H06  0.2-  0.3+
    200427 G34  0.4-  0.9-    200427 A50  0.0   0.5-    200428 H06  0.0   0.0
    200427 G34  0.1-  0.4+    200427 246  0.4+  0.2+    200428 H06  0.3+  0.2-
    200427 G34  0.3-  0.4+    200427 246  0.2+  0.3+
    
    Ephemeris:
    2020 HT7                 a,e,i = 1.29, 0.22, 5                   q = 1.0085
    Date    TT    R. A. (2000) Decl.     Delta      r    Elong.  Phase     V
    2020 03 29    09 33 28.4 -26 53 05   0.07306 1.0483   131.5    45.5    23.0
    ...
    2020 04 13    09 39 27.3 -26 00 41   0.03586 1.0231   123.8    54.5    21.6
    ...
    2020 04 21    10 15 28.1 -22 34 08   0.01625 1.0148   126.6    52.7    19.8
    ...
    2020 04 27    14 18 23.3 +11 27 54   0.0047671.0109   154.7    25.2    16.4
    2020 04 28    16 09 58.2 +24 22 41   0.0051811.0104   133.3    46.4    17.2
    2020 04 29    17 39 54.5 +30 06 23   0.0066081.0100   115.5    64.2    18.2
    ...
    2020 05 05    20 13 08.3 +30 22 56   0.02016 1.0085    89.3    89.6    21.5
    ...
    2020 05 13    20 45 09.7 +28 58 58   0.03945 1.0102    88.5    89.3    23.0
    ...
    2020 05 28    21 00 22.8 +28 07 05   0.07368 1.0240    96.2    79.7    24.0
    
    M. P. C. Staff               (C) Copyright 2020 MPC           M.P.E.C. 2020-H213
    


    Read MPEC 2020-H212 Read MPEC 2020-H214


    MPEC number:

    Enter an MPEC number in one of the following forms:

    • 1997-B01 (the full form)
    • J97B01 (the packed version of the full form)
    • B01 (the abbreviated form)